Location: Navajo
(48.7922°N, 105.0603°W)
Time: 05:04:03
(UTC+00:00)

KKS-1 - Pass Details

Date: 02 July 2022
Orbit: 634 x 649 km, 98.2° (Epoch: 18 August)

Event Time Altitude Azimuth Distance (km) Brightness Sun altitude
Rises 05:50:46 0° 8° (N) 2,980 ? -16.3°
Reaches altitude 10° 05:53:05 10° 1° (N) 2,063 ? -16.4°
Maximum altitude 05:57:17 40° 292° (WNW) 963 ? -16.6°
Enters shadow 06:01:20 11° 224° (SW) 2,009 ? -16.8°
